Temp
-10 -10 -10 -10 -10 -9 -9 -9 -8 -8 -8 -8 -8 -8 -9 -9 -9 -8 -9 -9 -9 -9 -9 -9 -9 -9 -9 -9 -9 -8 -8 -8 -8 -8 -8 -8 -8 -8 -8 -8 -8 -8 -8 -7 -7 -7 -7 -7 -7
-10 -10 -10 -10 -10 -9 -8 -9 -9 -8 -8 -8 -8 -8 -9 -9 -9 -8 -8 -9 -9 -9 -9 -9 -9 -9 -9 -9 -9 -9 -9 -9 -9 -8 -8 -8 -8 -8 -8 -8 -8 -8 -8 -8 -8 -8 -8 -8 -8
-10 -10 -10 -10 -10 -10 -9 -9 -9 -9 -8 -8 -8 -8 -9 -9 -9 -8 -8 -8 -8 -8 -8 -9 -9 -9 -9 -9 -9 -9 -9 -9 -9 -9 -9 -8 -8 -8 -8 -8 -8 -8 -8 -8 -8 -8 -8 -8 -8
-10 -10 -10 -10 -10 -10 -9 -9 -9 -8 -8 -8 -8 -8 -8 -9 -9 -8 -8 -8 -8 -8 -8 -8 -8 -9 -9 -9 -9 -9 -9 -9 -9 -9 -9 -9 -9 -9 -9 -9 -9 -9 -9 -8 -8 -8 -8 -8 -8
-10 -10 -10 -10 -10 -10 -10 -10 -10 -8 -8 -8 -8 -8 -8 -8 -9 -8 -8 -8 -8 -8 -8 -8 -8 -9 -9 -9 -9 -9 -9 -9 -9 -9 -9 -9 -9 -9 -9 -9 -9 -9 -9 -9 -9 -8 -8 -8 -8
-10 -10 -10 -10 -10 -10 -10 -9 -10 -9 -8 -8 -8 -8 -8 -9 -9 -8 -8 -8 -8 -8 -8 -8 -9 -9 -9 -9 -9 -9 -9 -9 -9 -9 -9 -9 -9 -9 -9 -9 -9 -9 -9 -9 -9 -9 -9 -9 -9
-11 -10 -10 -10 -10 -11 -10 -10 -10 -9 -9 -9 -9 -9 -9 -9 -9 -9 -8 -8 -8 -8 -8 -8 -9 -9 -9 -9 -9 -9 -10 -9 -9 -9 -9 -9 -9 -9 -9 -8 -8 -8 -8 -8 -9 -9 -9 -9 -9
-11 -11 -10 -10 -10 -11 -10 -9 -10 -9 -10 -9 -9 -9 -9 -9 -9 -9 -8 -8 -8 -8 -8 -8 -8 -9 -9 -9 -10 -10 -9 -9 -9 -9 -9 -9 -9 -9 -9 -9 -8 -8 -9 -9 -9 -9 -9 -9 -9
-10 -10 -10 -10 -10 -11 -11 -10 -10 -9 -10 -10 -10 -9 -9 -9 -9 -9 -9 -8 -8 -8 -8 -8 -9 -9 -9 -9 -9 -9 -9 -10 -10 -9 -9 -9 -9 -9 -9 -9 -9 -9 -9 -9 -9 -9 -10 -10 -10
-11 -10 -10 -10 -10 -11 -11 -11 -10 -10 -10 -10 -10 -9 -9 -9 -9 -9 -8 -9 -8 -8 -8 -8 -9 -9 -9 -9 -9 -9 -9 -10 -10 -10 -10 -10 -10 -9 -9 -9 -9 -9 -9 -9 -9 -10 -10 -10 -10
-11 -11 -10 -10 -10 -11 -11 -11 -10 -10 -10 -10 -10 -9 -9 -9 -9 -9 -9 -9 -9 -9 -9 -9 -9 -9 -9 -9 -9 -9 -10 -10 -10 -10 -10 -10 -10 -10 -10 -10 -10 -10 -10 -10 -10 -10 -10 -10 -10
-11 -12 -11 -11 -10 -11 -11 -11 -10 -10 -10 -10 -10 -10 -9 -9 -9 -10 -9 -9 -10 -9 -9 -9 -9 -9 -9 -9 -9 -9 -10 -10 -10 -10 -10 -10 -10 -10 -10 -10 -10 -10 -10 -10 -10 -10 -10 -10 -10
-11 -12 -11 -12 -12 -11 -12 -11 -10 -10 -10 -10 -10 -10 -10 -10 -10 -10 -10 -10 -10 -10 -10 -9 -9 -9 -9 -9 -9 -9 -9 -10 -10 -10 -10 -10 -10 -10 -10 -10 -10 -10 -10 -10 -11 -11 -11 -11 -11
-11 -12 -11 -11 -12 -12 -12 -11 -11 -10 -10 -10 -10 -10 -10 -10 -10 -10 -10 -10 -10 -10 -10 -10 -10 -10 -10 -10 -10 -10 -10 -10 -10 -10 -10 -10 -10 -10 -10 -10 -10 -10 -10 -10 -11 -11 -11 -11 -11
-13 -12 -12 -12 -12 -12 -12 -12 -11 -11 -11 -11 -11 -10 -10 -10 -10 -10 -10 -10 -10 -10 -10 -10 -10 -10 -10 -10 -10 -10 -10 -10 -10 -10 -10 -10 -10 -10 -10 -10 -10 -10 -11 -11 -11 -11 -11 -11 -11
-13 -13 -13 -12 -12 -13 -13 -12 -12 -12 -11 -11 -11 -11 -11 -11 -10 -10 -10 -10 -10 -10 -10 -10 -10 -10 -10 -10 -10 -10 -11 -11 -10 -10 -10 -10 -10 -10 -10 -10 -10 -10 -10 -11 -11 -11 -11 -11 -12
-13 -12 -12 -13 -13 -13 -13 -13 -12 -12 -12 -11 -11 -11 -11 -11 -11 -11 -10 -10 -10 -10 -11 -11 -11 -10 -10 -10 -11 -11 -11 -11 -11 -11 -10 -10 -10 -11 -11 -11 -11 -11 -11 -11 -11 -11 -12 -12 -12
-13 -13 -12 -12 -13 -13 -13 -12 -13 -12 -12 -11 -11 -11 -11 -11 -11 -11 -11 -11 -11 -11 -11 -10 -11 -11 -11 -11 -11 -11 -11 -11 -11 -11 -11 -11 -11 -11 -11 -11 -11 -11 -12 -12 -12 -12 -12 -12 -12
-13 -13 -13 -12 -13 -13 -13 -13 -13 -13 -12 -12 -11 -11 -11 -11 -11 -11 -11 -11 -11 -11 -11 -11 -12 -11 -11 -11 -11 -11 -11 -11 -11 -11 -11 -11 -11 -11 -11 -11 -12 -12 -12 -12 -12 -12 -12 -12 -12
-14 -13 -13 -13 -13 -13 -13 -13 -13 -13 -12 -12 -12 -12 -11 -11 -11 -12 -12 -12 -12 -12 -12 -12 -12 -12 -11 -11 -11 -11 -11 -11 -11 -11 -11 -11 -12 -12 -12 -12 -12 -12 -12 -12 -12 -12 -12 -12 -12
-14 -13 -13 -13 -13 -13 -13 -12 -13 -13 -13 -13 -12 -12 -12 -11 -11 -11 -12 -12 -12 -12 -12 -12 -12 -12 -12 -12 -12 -12 -12 -12 -12 -12 -12 -12 -12 -12 -12 -12 -12 -12 -12 -12 -12 -12 -12 -12 -11
-14 -13 -13 -13 -13 -13 -13 -13 -13 -13 -13 -13 -12 -12 -12 -12 -11 -12 -12 -12 -12 -12 -12 -13 -13 -13 -13 -13 -12 -12 -12 -12 -12 -12 -12 -12 -12 -13 -12 -13 -12 -13 -12 -13 -12 -12 -12 -12 -12
-14 -13 -13 -13 -13 -13 -13 -13 -12 -13 -13 -13 -12 -11 -11 -12 -12 -12 -12 -12 -12 -12 -12 -13 -13 -13 -13 -13 -13 -12 -12 -12 -12 -12 -12 -13 -12 -12 -12 -12 -13 -13 -12 -13 -13 -12 -12 -12 -12
-14 -14 -13 -13 -13 -13 -13 -13 -13 -13 -13 -13 -13 -12 -11 -12 -12 -12 -12 -12 -12 -12 -12 -13 -13 -13 -13 -13 -13 -13 -13 -13 -13 -13 -12 -12 -12 -12 -12 -13 -13 -13 -13 -13 -13 -13 -13 -13 -14
-14 -14 -14 -14 -13 -13 -13 -13 -13 -13 -13 -13 -13 -13 -12 -13 -13 -13 -12 -12 -12 -12 -13 -13 -13 -13 -13 -13 -13 -14 -13 -13 -12 -12 -12 -13 -13 -13 -13 -13 -13 -13 -14 -14 -14 -14 -14 -14 -15
-15 -14 -14 -14 -13 -13 -13 -13 -13 -13 -13 -13 -13 -13 -12 -13 -13 -13 -13 -13 -13 -13 -13 -13 -13 -13 -13 -13 -13 -13 -13 -13 -13 -13 -13 -13 -13 -13 -14 -14 -14 -14 -14 -15 -15 -15 -16 -16 -15
-15 -16 -15 -14 -14 -13 -14 -13 -13 -13 -13 -13 -13 -13 -13 -13 -13 -13 -13 -13 -13 -13 -13 -13 -13 -13 -13 -13 -13 -13 -13 -13 -13 -13 -13 -14 -14 -15 -15 -15 -14 -14 -14 -15 -15 -15 -16 -16 -16
-17 -17 -16 -15 -15 -14 -14 -14 -13 -13 -13 -13 -13 -13 -13 -13 -13 -14 -14 -14 -14 -14 -14 -13 -13 -13 -13 -14 -14 -14 -14 -14 -13 -14 -14 -15 -14 -14 -14 -15 -15 -15 -16 -16 -16 -16 -16 -17 -17
-17 -17 -17 -16 -16 -15 -14 -14 -14 -14 -14 -13 -14 -13 -13 -14 -14 -14 -14 -14 -14 -14 -15 -15 -15 -14 -14 -14 -14 -14 -14 -14 -14 -14 -14 -14 -14 -15 -15 -15 -16 -16 -16 -16 -17 -17 -18 -18 -18
-19 -18 -17 -17 -17 -17 -16 -15 -15 -14 -14 -14 -14 -14 -14 -14 -14 -14 -14 -14 -15 -15 -15 -15 -15 -15 -14 -15 -15 -14 -15 -15 -15 -15 -15 -15 -15 -16 -16 -16 -17 -17 -17 -17 -18 -19 -19 -19 -20
Height
5849 5850 5850 5852 5857 5856 5856 5857 5858 5859 5862 5865 5866 5868 5869 5871 5871 5874 5872 5873 5873 5874 5875 5875 5875 5876 5877 5877 5878 5879 5880 5880 5880 5881 5880 5880 5880 5879 5879 5879 5879 5878 5878 5877 5877 5876 5875 5874 5874
5847 5848 5850 5851 5854 5854 5855 5857 5858 5859 5861 5863 5864 5866 5867 5870 5870 5871 5872 5872 5873 5874 5875 5875 5876 5876 5877 5878 5878 5879 5879 5880 5880 5880 5880 5880 5880 5880 5879 5878 5878 5877 5876 5876 5875 5874 5874 5873 5872
5844 5845 5847 5848 5850 5852 5853 5856 5856 5857 5860 5861 5863 5865 5868 5870 5869 5870 5871 5872 5873 5874 5874 5875 5876 5876 5877 5878 5878 5879 5879 5879 5879 5879 5879 5879 5879 5879 5878 5878 5877 5876 5876 5875 5874 5873 5872 5872 5871
5841 5842 5844 5846 5850 5850 5852 5853 5854 5856 5858 5860 5861 5863 5866 5869 5869 5870 5871 5872 5873 5874 5874 5875 5875 5876 5877 5877 5877 5877 5878 5877 5877 5877 5877 5877 5877 5877 5877 5877 5876 5875 5874 5873 5872 5871 5869 5869 5868
5836 5837 5839 5843 5846 5847 5849 5850 5852 5853 5856 5857 5859 5861 5863 5867 5867 5868 5870 5872 5873 5873 5874 5875 5875 5876 5877 5877 5877 5877 5877 5877 5876 5877 5876 5876 5876 5876 5875 5875 5874 5873 5872 5871 5870 5868 5867 5866 5865
5831 5831 5835 5840 5843 5846 5846 5846 5849 5852 5855 5855 5857 5859 5862 5864 5866 5866 5869 5871 5872 5873 5874 5875 5875 5876 5877 5877 5877 5877 5877 5876 5876 5876 5876 5876 5875 5875 5874 5873 5871 5871 5869 5868 5867 5866 5864 5863 5862
5825 5828 5831 5835 5840 5841 5845 5847 5848 5849 5852 5854 5854 5855 5860 5863 5864 5864 5867 5869 5871 5872 5873 5874 5875 5875 5875 5876 5876 5877 5876 5876 5876 5875 5875 5874 5874 5873 5873 5872 5870 5869 5868 5867 5865 5864 5863 5862 5861
5820 5824 5826 5829 5836 5840 5841 5844 5845 5846 5848 5849 5850 5853 5857 5860 5862 5863 5865 5867 5869 5871 5872 5873 5874 5875 5875 5875 5875 5876 5875 5875 5875 5875 5875 5874 5873 5872 5871 5870 5869 5868 5866 5865 5864 5862 5861 5860 5859
5816 5819 5821 5825 5829 5834 5836 5839 5842 5843 5843 5846 5847 5850 5855 5858 5859 5861 5863 5866 5867 5869 5870 5872 5873 5873 5874 5874 5874 5875 5875 5875 5874 5874 5873 5872 5872 5871 5870 5869 5868 5866 5864 5863 5861 5860 5859 5857 5856
5806 5813 5815 5817 5825 5828 5833 5835 5838 5840 5842 5843 5845 5848 5852 5855 5856 5858 5860 5862 5865 5867 5869 5870 5871 5872 5872 5873 5873 5873 5873 5873 5873 5872 5871 5870 5869 5869 5869 5868 5866 5865 5863 5861 5860 5859 5856 5854 5853
5800 5806 5810 5810 5817 5821 5827 5831 5833 5835 5840 5841 5842 5845 5848 5852 5854 5855 5857 5860 5863 5865 5866 5868 5869 5870 5870 5871 5872 5872 5872 5871 5870 5870 5870 5869 5868 5867 5866 5865 5864 5862 5860 5859 5857 5855 5854 5852 5850
5793 5798 5802 5803 5810 5816 5820 5823 5826 5833 5836 5836 5839 5842 5844 5847 5850 5852 5855 5858 5859 5861 5863 5864 5865 5867 5868 5869 5869 5869 5869 5869 5869 5868 5867 5867 5866 5864 5864 5862 5861 5860 5858 5855 5854 5851 5849 5847 5844
5785 5789 5793 5797 5803 5811 5813 5816 5818 5828 5831 5830 5835 5839 5841 5843 5846 5849 5852 5854 5857 5857 5859 5861 5862 5864 5864 5866 5866 5866 5866 5866 5866 5866 5865 5864 5862 5862 5861 5860 5858 5856 5855 5852 5850 5847 5845 5842 5839
5776 5780 5784 5789 5795 5803 5806 5810 5812 5823 5827 5826 5830 5835 5838 5840 5842 5845 5848 5850 5851 5853 5855 5857 5859 5860 5861 5862 5863 5863 5863 5864 5863 5862 5861 5859 5858 5858 5857 5856 5854 5853 5850 5849 5846 5843 5840 5837 5834
5767 5769 5774 5778 5786 5793 5797 5801 5807 5813 5818 5820 5825 5829 5833 5836 5838 5840 5843 5845 5847 5850 5852 5854 5855 5856 5858 5858 5859 5859 5860 5861 5860 5858 5856 5855 5855 5853 5852 5850 5849 5847 5846 5844 5842 5839 5835 5832 5828
5757 5759 5764 5771 5776 5782 5789 5795 5801 5806 5812 5815 5819 5823 5827 5831 5834 5835 5838 5840 5842 5846 5848 5850 5852 5853 5854 5854 5855 5856 5856 5855 5854 5854 5853 5852 5850 5848 5846 5844 5843 5841 5838 5837 5835 5832 5829 5826 5821
5741 5747 5755 5761 5768 5776 5779 5789 5791 5799 5805 5809 5813 5816 5821 5826 5829 5830 5832 5835 5837 5841 5844 5845 5847 5849 5850 5850 5851 5851 5852 5851 5850 5849 5847 5846 5845 5843 5841 5839 5836 5835 5832 5829 5826 5824 5821 5818 5813
5731 5738 5745 5752 5761 5766 5773 5781 5783 5791 5796 5802 5806 5811 5815 5820 5823 5826 5826 5830 5834 5836 5839 5842 5843 5844 5844 5845 5845 5846 5845 5845 5844 5843 5841 5840 5838 5837 5835 5832 5829 5826 5824 5821 5817 5813 5810 5807 5803
5724 5730 5738 5745 5753 5759 5767 5774 5776 5782 5787 5794 5801 5805 5809 5813 5815 5821 5824 5826 5830 5833 5835 5837 5837 5837 5837 5838 5839 5839 5839 5838 5838 5837 5835 5833 5830 5828 5826 5824 5820 5818 5814 5811 5807 5803 5799 5796 5792
5708 5718 5726 5736 5744 5750 5758 5763 5767 5773 5778 5786 5793 5799 5802 5805 5809 5814 5818 5821 5824 5825 5826 5828 5830 5830 5830 5832 5832 5832 5832 5831 5830 5829 5828 5825 5822 5819 5816 5814 5811 5808 5804 5802 5798 5794 5790 5786 5782
5698 5706 5718 5727 5734 5740 5750 5754 5757 5765 5771 5775 5784 5791 5795 5798 5802 5806 5811 5814 5817 5820 5821 5822 5823 5824 5824 5823 5824 5824 5824 5823 5821 5820 5819 5817 5814 5810 5806 5802 5799 5796 5793 5790 5787 5782 5778 5773 5770
5692 5704 5712 5717 5725 5731 5736 5741 5748 5756 5762 5766 5773 5782 5788 5792 5797 5799 5802 5805 5809 5812 5814 5815 5816 5817 5817 5816 5816 5816 5816 5814 5812 5810 5808 5806 5803 5799 5795 5792 5788 5785 5781 5777 5774 5770 5766 5761 5757
5687 5692 5703 5710 5717 5722 5727 5734 5741 5747 5753 5759 5764 5771 5780 5786 5790 5792 5794 5797 5800 5802 5804 5806 5807 5809 5809 5809 5808 5807 5806 5804 5801 5798 5797 5795 5791 5787 5785 5781 5777 5774 5769 5764 5761 5757 5752 5747 5742
5679 5690 5697 5702 5706 5709 5715 5725 5731 5737 5746 5751 5757 5763 5771 5778 5783 5785 5785 5788 5791 5793 5795 5797 5799 5800 5800 5800 5799 5798 5797 5794 5790 5788 5784 5783 5779 5776 5773 5771 5765 5762 5758 5754 5749 5744 5739 5734 5729
5674 5681 5687 5689 5692 5697 5709 5717 5723 5730 5736 5741 5749 5757 5763 5768 5771 5774 5777 5779 5782 5784 5786 5788 5790 5790 5791 5791 5789 5788 5787 5786 5782 5779 5776 5773 5769 5766 5763 5760 5756 5751 5747 5743 5737 5732 5728 5723 5718
5668 5673 5677 5678 5684 5694 5701 5705 5713 5722 5729 5736 5742 5747 5752 5755 5760 5764 5767 5771 5773 5774 5776 5779 5779 5782 5781 5781 5780 5778 5779 5775 5773 5770 5766 5762 5759 5757 5754 5749 5744 5740 5735 5730 5726 5722 5717 5713 5708
5658 5664 5668 5673 5681 5689 5695 5702 5710 5718 5724 5730 5735 5739 5744 5749 5753 5757 5760 5763 5766 5769 5771 5772 5772 5772 5772 5773 5772 5771 5769 5767 5763 5760 5756 5752 5749 5746 5742 5738 5733 5728 5723 5719 5713 5709 5703 5698 5692
5651 5661 5665 5667 5673 5680 5689 5698 5706 5713 5720 5725 5729 5733 5737 5742 5746 5750 5752 5754 5758 5761 5763 5763 5763 5763 5763 5763 5762 5761 5758 5756 5753 5750 5747 5743 5739 5734 5729 5725 5720 5715 5711 5706 5701 5696 5690 5684 5679
5647 5654 5662 5668 5669 5675 5684 5695 5701 5707 5714 5720 5724 5727 5732 5736 5739 5742 5745 5748 5750 5752 5754 5756 5756 5756 5755 5755 5754 5752 5749 5747 5744 5742 5738 5734 5729 5724 5719 5714 5709 5704 5699 5694 5689 5683 5677 5671 5665
5642 5650 5657 5663 5670 5676 5682 5690 5693 5700 5709 5714 5717 5721 5726 5730 5733 5736 5739 5742 5744 5746 5747 5747 5748 5748 5747 5746 5744 5742 5740 5736 5733 5730 5727 5723 5718 5713 5707 5702 5697 5693 5687 5682 5676 5670 5663 5657 5651
Wind_Speed
30 30 30 29 28 27 27 20 23 20 18 15 13 12 11 7 9 8 11 11 10 9 9 9 9 8 7 6 6 4 4 4 4 3 4 3 3 2 3 3 3 4 4 4 4 5 5 7 11
30 30 30 30 29 28 27 22 19 19 20 18 15 14 13 12 9 8 9 12 11 10 10 9 8 8 7 6 5 4 3 3 3 3 2 1 1 2 2 1 1 2 3 4 5 6 7 6 9
32 31 32 32 32 27 28 25 27 23 21 20 17 14 13 12 12 9 10 11 12 11 10 9 8 7 8 7 6 5 6 7 6 5 5 6 6 5 5 5 6 8 9 11 12 13 14 15 14
34 34 33 32 30 28 26 27 26 26 23 21 20 18 15 13 13 10 12 13 12 12 11 9 8 7 6 5 5 4 3 2 4 6 9 10 10 10 10 11 12 13 15 18 20 19 17 16 16
37 35 34 33 29 30 21 19 21 24 23 22 22 19 17 16 16 13 13 13 13 13 11 11 9 7 5 4 3 3 2 0 1 1 3 4 8 10 13 14 13 11 11 13 14 14 14 13 13
37 38 36 35 30 28 28 25 24 17 20 23 21 19 18 18 17 16 16 16 15 13 12 10 9 7 4 3 1 1 1 1 0 0 2 3 4 6 8 9 10 12 14 16 16 16 15 15 14
38 38 36 37 33 35 32 25 20 18 20 21 21 20 18 18 18 18 16 17 15 14 13 11 9 8 6 5 3 1 1 1 1 1 1 2 4 5 8 10 11 12 14 16 15 15 17 17 16
40 37 40 41 35 33 36 29 20 20 22 26 24 22 21 20 19 19 18 18 16 15 14 12 10 8 6 5 4 3 2 2 1 3 4 6 7 8 10 10 11 12 13 14 15 15 15 15 17
52 42 42 42 38 36 36 33 31 27 25 27 26 25 23 21 21 21 20 19 18 18 16 14 12 11 9 8 7 5 4 3 3 4 6 7 8 9 10 11 11 12 14 14 15 16 17 17 17
52 50 43 46 39 39 38 38 31 28 28 28 29 26 24 24 24 23 23 22 20 19 17 16 14 12 11 10 8 6 4 4 5 6 8 9 9 10 12 13 13 14 15 17 17 17 17 19 20
44 51 49 49 43 42 39 40 38 36 27 29 30 29 27 26 25 25 24 22 18 17 17 17 15 14 13 11 9 7 6 6 6 6 8 10 11 12 13 13 14 15 16 17 19 20 21 22 22
46 57 58 49 45 43 41 41 38 37 31 29 28 29 29 28 27 26 24 21 19 18 18 18 17 16 14 13 11 10 9 9 8 8 9 11 13 14 14 15 17 17 18 19 20 21 23 25 26
46 49 62 59 47 42 45 51 52 40 33 34 30 30 30 29 28 26 25 22 21 21 19 18 18 17 16 16 14 13 13 12 12 13 14 15 16 17 17 18 20 21 20 20 21 23 25 27 28
47 49 54 59 54 44 47 49 52 44 37 36 33 32 31 29 28 27 26 25 26 24 22 21 20 19 18 17 17 17 16 15 15 16 18 20 21 22 21 22 23 24 25 24 25 27 27 29 31
46 50 54 54 59 55 49 49 48 42 42 38 36 34 33 30 27 27 28 28 28 25 23 23 21 20 19 18 19 19 18 18 20 21 23 24 25 25 27 28 27 28 30 29 30 32 33 33 34
53 48 54 52 54 52 54 49 47 45 40 39 38 37 34 32 30 28 28 29 29 25 24 23 22 22 21 21 22 21 21 22 23 25 27 28 28 29 31 32 32 32 33 35 37 38 38 39 38
54 52 51 54 55 52 54 53 54 48 44 42 42 40 37 34 32 31 30 30 29 26 25 25 23 23 24 24 23 25 24 25 26 28 29 31 33 34 34 34 35 37 38 40 42 42 41 41 42
50 54 51 49 53 60 54 45 50 49 47 44 44 42 39 37 36 34 32 31 29 29 27 26 25 26 28 26 27 27 28 30 31 31 33 34 36 38 39 39 39 41 42 42 44 45 45 46 46
56 54 51 48 51 60 60 60 56 50 49 46 43 42 40 40 39 37 34 31 29 29 27 26 27 29 31 30 32 32 32 33 33 35 37 38 39 41 43 43 43 45 44 42 44 45 47 48 49
46 53 47 50 50 53 57 56 62 58 51 49 44 43 42 41 36 36 35 34 33 30 30 30 30 32 33 32 33 33 34 35 36 38 40 42 42 44 46 47 49 48 47 47 47 48 50 52 54
51 47 48 52 49 52 53 62 66 65 55 50 48 48 44 42 40 38 38 36 33 33 33 32 32 32 33 33 34 35 36 38 39 42 43 45 47 51 52 52 52 49 49 52 53 53 57 56 55
41 42 48 49 51 53 55 55 59 58 61 58 54 50 47 48 42 40 36 37 36 35 35 34 34 35 36 36 37 39 41 42 42 46 49 50 54 52 48 52 49 47 54 55 54 55 56 59 61
43 48 47 44 46 47 56 59 49 60 60 61 57 50 47 46 47 45 43 44 42 42 42 41 38 38 39 40 40 42 45 49 52 53 50 53 52 45 52 49 52 56 55 54 56 60 61 63 63
34 39 39 43 50 51 56 49 55 46 49 62 60 57 53 39 46 50 50 45 39 40 43 42 40 37 41 43 44 52 54 49 53 53 40 48 47 42 52 49 50 57 58 59 62 63 63 62 60
31 43 44 43 51 52 47 42 47 44 42 49 59 52 56 52 56 53 50 41 43 42 41 39 42 44 45 51 50 49 42 48 40 49 53 45 47 56 49 49 55 59 60 59 56 54 53 55 56
41 38 44 45 49 39 41 42 41 39 33 36 41 42 43 38 47 55 55 48 39 44 48 48 44 50 49 44 38 34 43 40 47 42 51 45 48 47 52 54 54 53 52 48 49 49 52 56 59
43 22 26 32 46 44 40 38 37 39 35 31 27 27 29 30 32 42 51 55 57 55 49 50 49 41 39 37 29 36 41 49 45 46 50 43 44 47 51 55 57 57 58 56 52 53 54 55 54
28 24 25 32 40 45 41 38 34 29 27 26 26 27 27 28 29 27 27 34 44 46 40 33 31 31 29 31 35 37 45 40 45 44 45 44 49 51 54 57 57 53 51 52 52 51 53 57 57
36 30 26 24 27 34 39 36 33 31 29 29 28 27 26 25 25 24 25 27 27 24 24 23 25 24 25 26 31 38 36 40 43 44 51 53 53 54 56 54 52 52 54 54 53 55 58 59 59
48 40 32 25 23 19 27 35 29 32 30 27 24 25 27 27 25 26 28 27 19 21 27 25 24 28 31 34 36 39 43 44 46 50 52 53 52 52 51 52 54 54 54 55 57 58 59 60 60
Wind_Direction
204 200 199 200 201 200 204 201 208 191 189 194 173 170 172 191 196 188 185 178 166 162 151 144 135 128 128 125 122 126 123 113 122 119 110 111 105 92 76 58 32 30 13 8 353 341 342 339 335
207 207 206 206 203 203 206 206 210 205 186 197 187 184 184 178 196 191 190 188 184 182 180 176 170 169 166 165 166 170 183 192 210 223 244 314 342 354 23 10 352 314 334 332 324 328 334 333 308
212 209 211 212 206 209 212 204 216 218 204 202 196 195 196 189 192 196 186 185 189 187 187 184 186 194 193 204 215 226 244 248 249 247 237 244 258 265 274 282 287 289 292 294 296 296 295 296 296
217 212 213 216 212 218 216 215 217 226 215 201 206 201 202 196 201 193 192 177 179 176 170 165 166 175 174 177 175 173 188 226 249 259 255 252 254 259 264 271 275 283 286 285 286 287 288 287 286
217 216 215 217 211 212 203 207 221 227 217 209 210 212 205 201 203 198 194 186 180 174 168 161 157 158 151 156 175 179 191 107 95 259 296 296 276 270 272 276 280 280 284 286 284 283 283 287 287
220 217 216 218 211 206 199 190 209 222 220 218 213 214 206 198 201 201 195 190 187 181 173 173 167 165 158 143 153 171 178 229 175 312 295 289 292 293 287 286 289 294 290 285 285 286 285 280 280
219 221 219 217 212 211 209 204 208 223 226 220 217 209 208 205 202 203 201 200 193 191 186 185 187 183 185 190 183 177 193 208 283 326 307 310 306 304 301 301 300 300 301 303 302 294 291 288 288
224 218 222 219 212 218 221 207 194 215 216 212 217 218 209 208 212 208 206 209 202 201 198 200 200 205 206 219 238 240 256 282 291 299 298 297 294 294 295 301 308 313 312 310 309 308 313 302 293
226 218 221 222 213 214 218 210 209 217 217 215 219 215 212 210 213 214 211 213 210 211 209 210 213 214 214 221 222 239 252 246 260 285 287 289 291 292 298 303 306 305 311 314 315 313 309 304 300
227 220 218 223 214 216 217 212 214 218 227 218 217 217 218 210 210 214 215 212 217 217 218 218 223 228 223 223 227 224 235 249 267 267 269 275 282 291 297 299 301 304 309 312 313 312 307 305 303
231 214 220 223 213 213 217 228 225 226 227 225 222 220 216 216 214 216 217 217 218 221 223 224 226 229 233 230 236 242 243 252 260 277 292 303 305 303 298 299 298 301 304 307 306 307 306 304 304
228 218 223 230 220 214 210 217 219 223 224 229 228 222 215 214 214 217 216 216 216 220 223 226 226 232 239 243 240 239 245 258 270 282 295 306 311 314 315 314 313 309 307 304 307 309 308 305 302
224 223 223 228 225 219 215 216 227 229 232 236 228 225 219 213 213 216 217 214 220 222 224 231 233 234 238 239 241 243 247 255 269 282 291 296 298 300 306 309 307 308 309 308 310 310 308 306 302
219 226 225 229 230 221 226 223 231 230 232 235 231 226 225 218 216 214 217 216 219 223 224 226 232 235 238 243 244 245 250 258 268 275 280 282 287 295 298 297 297 301 301 300 300 301 305 305 302
218 220 229 228 227 220 224 226 230 230 227 229 234 230 226 223 219 218 219 223 226 225 228 231 233 236 238 242 248 252 256 263 267 270 273 280 287 292 292 293 296 296 295 295 298 299 300 302 301
221 218 222 226 223 221 219 224 227 230 227 227 228 230 229 226 224 221 223 226 230 230 233 236 237 238 242 246 250 256 257 259 265 272 278 282 285 286 290 293 296 296 297 296 298 297 299 299 300
218 215 215 224 223 219 225 227 231 231 230 231 232 229 228 228 228 227 224 226 232 230 233 237 240 248 251 254 259 260 266 269 271 274 278 283 286 289 290 292 294 295 295 294 294 296 297 298 296
216 215 216 220 221 220 217 219 226 229 229 229 232 233 230 230 231 231 231 229 231 234 235 240 245 250 256 260 261 265 267 269 272 277 282 283 287 289 290 291 291 296 296 292 292 293 292 291 293
221 217 219 218 219 221 224 220 226 227 228 227 229 232 233 234 234 235 237 239 239 241 243 246 250 252 256 260 264 268 273 277 280 282 283 286 288 290 290 291 290 293 293 291 289 289 291 291 293
212 217 217 225 220 224 222 227 226 224 229 228 224 227 231 233 236 238 241 241 240 240 243 248 252 258 263 267 272 275 277 279 281 284 286 287 289 293 293 291 292 291 291 293 290 291 290 290 289
217 212 213 218 218 220 222 215 228 226 231 231 223 221 226 228 232 240 240 240 241 244 247 250 253 258 263 267 269 272 275 278 282 285 287 288 289 293 293 288 290 290 290 294 291 292 294 295 296
208 216 224 218 214 217 224 227 227 227 228 230 230 222 221 231 233 237 242 243 243 246 249 252 255 259 263 266 270 274 276 279 281 286 286 286 289 290 293 293 290 289 297 296 293 294 297 297 297
206 205 213 222 220 222 227 230 231 224 223 229 232 232 225 226 231 239 242 243 249 249 251 255 258 261 267 270 274 278 281 284 286 284 287 291 287 286 298 295 289 292 296 294 295 298 300 300 300
210 213 207 217 218 220 229 226 228 236 235 233 233 233 237 221 226 234 244 248 251 252 252 255 258 263 268 273 277 279 284 288 286 284 283 291 293 284 295 295 289 294 298 293 293 297 297 297 298
185 189 203 203 214 221 221 227 230 227 228 229 234 239 239 241 244 235 237 238 245 249 251 257 265 271 274 281 282 285 280 279 290 293 271 281 287 286 286 290 290 292 297 297 299 299 300 301 299
187 189 205 198 199 209 204 209 213 218 215 216 224 228 235 236 235 235 237 239 239 247 255 267 270 278 275 272 273 278 275 282 284 273 283 291 291 294 295 300 299 299 297 301 302 304 305 306 300
173 172 186 198 199 195 199 211 210 200 205 211 227 228 230 228 231 240 245 247 250 255 266 271 270 265 264 262 265 279 267 277 279 286 287 290 292 302 304 302 301 306 306 304 297 295 296 298 299
182 171 151 158 174 202 203 196 204 211 224 230 230 225 216 219 232 233 242 259 265 262 255 254 254 255 258 262 256 268 283 280 280 285 286 297 298 297 298 299 300 299 299 299 298 298 299 301 300
213 194 176 166 163 180 191 200 207 209 210 207 211 216 220 223 233 238 236 240 245 253 260 263 269 275 273 277 276 274 279 285 288 292 292 293 292 292 293 296 298 298 298 297 297 299 300 300 297
243 239 225 201 177 180 184 192 191 202 211 221 232 235 243 250 255 258 257 244 246 255 253 261 267 271 269 268 268 271 276 278 281 285 288 291 292 294 295 296 296 296 296 296 298 300 299 298 296